Location: *
(37.9500°N, 27.3666°E)
Time: 15:30:32
(UTC+00:00)

Cosmos 2219 Rocket - Pass Details

Date: 24 October 2021
Orbit: 826 x 848 km, 71.0° (Epoch: 07 December)

Event Time Altitude Azimuth Distance (km) Brightness Sun altitude
Rises 18:09:41 0° 218° (SW) 3,351 5.6 -33.8°
Reaches altitude 10° 18:12:12 10° 224° (SW) 2,422 4.9 -34.3°
Enters shadow 18:15:52 36° 253° (WSW) 1,290 3.4 -35.0°
